Home   Weather   Belmullet   Past weeks
Flag for Ireland

Past Weather in Belmullet, Ireland — Yesterday and Last 2 Weeks

Now
49 °F

Cool.


Feels Like: 47 °F
Forecast: 52 / 49 °F
Wind: 7 mph from Southwest

Location: Belmullet

Current Time: Mar 20, 2019 at 1:51:30 am

Latest Report: Mar 20, 2019 at 12:00 am


Visibility: 2 mi

Pressure: 30.32 "Hg

Humidity: 99%

Dew Point: 49 °F

Location of BelmulletLocation

Past Weather in Belmullet — Graph

°F

Belmullet Temperature Yesterday

Maximum temperature yesterday: 51 °F (at 1:00 pm)
Minimum temperature yesterday: 47 °F (at 12:00 am)
Average temperature yesterday: 49 °F

High & Low Weather Summary for the Past Weeks

 TemperatureHumidityPressure
High51 °F (Mar 14, 11:00 pm)99% (Mar 19, 6:00 am)30.32 "Hg (Mar 19, 6:00 am)
Low38 °F (Mar 11, 2:00 am)50% (Mar 10, 11:00 am)28.97 "Hg (Mar 6, 5:00 am)
Average46 °F80%29.65 "Hg
* Reported Mar 5 12:00 am — Mar 20 12:00 am, Belmullet. Weather by CustomWeather, © 2019

Note: Actual official high and low records may vary slightly from our data, if they occured in-between our weather recording intervals... More about our weather records

Advertising

Belmullet Weather History for the Previous 24 Hours

Scroll right to see more
 ConditionsComfort  
Time TempWeatherWind HumidityBarometerVisibility
12:00 am
Wed, Mar 20
49 °FCool.7 mph99%30.32 "Hg2 mi
11:00 pm
Tue, Mar 19
49 °FCool.8 mph99%30.31 "Hg4 mi
10:00 pm49 °FCool.7 mph98%30.31 "Hg6 mi
9:00 pm49 °FCool.8 mph99%30.31 "Hg2 mi
8:00 pm49 °FCool.7 mph99%30.30 "Hg2 mi
7:00 pm50 °FCool.7 mph97%30.29 "Hg2 mi
6:00 pm50 °FCool.6 mph97%30.27 "Hg7 mi
5:00 pm50 °FCool.7 mph97%30.26 "Hg4 mi
4:00 pm50 °FCool.8 mph95%30.26 "Hg3 mi
3:00 pm50 °FCool.8 mph96%30.24 "Hg3 mi
2:00 pm50 °FCool.9 mph96%30.24 "Hg4 mi
1:00 pm51 °FCool.9 mph94%30.23 "Hg4 mi
12:00 pm50 °FCool.8 mph94%30.22 "Hg7 mi
11:00 am50 °FCool.9 mph99%30.20 "Hg3 mi
10:00 am49 °FCool.9 mph99%30.19 "Hg1 mi
9:00 am50 °FFog.8 mph99%30.17 "Hg2 mi
8:00 am50 °FCool.9 mph98%30.16 "Hg3 mi
7:00 am50 °FCool.8 mph99%30.14 "Hg1 mi
6:00 am50 °FRain showers. Overcast.8 mph99%30.12 "Hg1 mi
5:00 am49 °FCool.10 mph97%30.13 "Hg2 mi
4:00 am48 °FCool.8 mph97%30.14 "Hg4 mi
3:00 am48 °FFog.8 mph97%30.15 "Hg4 mi
2:00 am47 °FCool.9 mph96%30.17 "Hg3 mi
1:00 am47 °FCool.8 mph93%30.19 "Hg10 mi
Weather by CustomWeather, © 2019

See weather overview